Stündliche Wetter Otorowo

Heute, 15 April, Donnerstag

Zeit Temperatur Niederschläge Wind Luftdruck Luftfeuchtigkeit
00:00 +1°C° 0 mm 4 m/S 764 mmHg 73%
01:00 +1°C° 0 mm 5 m/S 764 mmHg 75%
02:00 +1°C° 0.1 mm 5 m/S 764 mmHg 81%
03:00 0°C° 0.1 mm 5 m/S 764 mmHg 88%
04:00 0°C° 0.1 mm 5 m/S 764 mmHg 94%
05:00 -1°C° 0.2 mm 6 m/S 764 mmHg 93%
06:00 -1°C° 0.2 mm 6 m/S 763 mmHg 92%
07:00 -1°C° 0.2 mm 7 m/S 763 mmHg 91%
08:00 -1°C° 0.4 mm 7 m/S 763 mmHg 92%
09:00 +1°C° 0.4 mm 6 m/S 763 mmHg 94%
10:00 +1°C° 0.4 mm 6 m/S 763 mmHg 95%
11:00 +1°C° 0.7 mm 6 m/S 763 mmHg 96%
12:00 +1°C° 0.7 mm 6 m/S 763 mmHg 96%
13:00 +1°C° 0.7 mm 6 m/S 763 mmHg 96%
14:00 +1°C° 1.2 mm 6 m/S 762 mmHg 96%
15:00 +1°C° 1.2 mm 6 m/S 762 mmHg 97%
16:00 +1°C° 1.2 mm 6 m/S 762 mmHg 97%
17:00 +1°C° 0.8 mm 6 m/S 762 mmHg 95%
18:00 +2°C° 0.8 mm 5 m/S 762 mmHg 94%
19:00 +2°C° 0.8 mm 5 m/S 762 mmHg 92%
20:00 +2°C° 0.2 mm 5 m/S 762 mmHg 92%
21:00 +2°C° 0.2 mm 5 m/S 762 mmHg 91%
22:00 +2°C° 0.2 mm 5 m/S 762 mmHg 91%
23:00 +3°C° 0.1 mm 4 m/S 762 mmHg 90%

Morgen, 16 April, Freitag

Zeit Temperatur Niederschläge Wind Luftdruck Luftfeuchtigkeit
00:00 +3°C° 0.1 mm 4 m/S 762 mmHg 90%
01:00 +3°C° 0.1 mm 4 m/S 762 mmHg 89%
02:00 +3°C° 0 mm 4 m/S 762 mmHg 89%
03:00 +1°C° 0 mm 4 m/S 762 mmHg 88%
04:00 +1°C° 0 mm 4 m/S 761 mmHg 88%
05:00 +3°C° 0 mm 4 m/S 762 mmHg 87%
06:00 +3°C° 0 mm 4 m/S 762 mmHg 86%
07:00 +2°C° 0 mm 5 m/S 762 mmHg 85%
08:00 +2°C° 0 mm 5 m/S 762 mmHg 87%
09:00 +3°C° 0 mm 4 m/S 762 mmHg 88%
10:00 +3°C° 0 mm 4 m/S 762 mmHg 89%
11:00 +3°C° 0 mm 4 m/S 762 mmHg 90%
12:00 +3°C° 0 mm 4 m/S 762 mmHg 91%
13:00 +3°C° 0 mm 4 m/S 762 mmHg 92%
14:00 +3°C° 0.2 mm 4 m/S 762 mmHg 92%
15:00 +3°C° 0.2 mm 4 m/S 762 mmHg 92%
16:00 +3°C° 0.2 mm 3 m/S 762 mmHg 93%
17:00 +3°C° 0 mm 3 m/S 762 mmHg 93%
18:00 +3°C° 0 mm 3 m/S 762 mmHg 94%
19:00 +3°C° 0 mm 3 m/S 762 mmHg 94%
20:00 +3°C° 0 mm 3 m/S 762 mmHg 95%
21:00 +4°C° 0 mm 2 m/S 762 mmHg 95%
22:00 +4°C° 0 mm 2 m/S 762 mmHg 96%
23:00 +4°C° 0 mm 2 m/S 762 mmHg 97%

übermorgen, 17 April, Samstag

Zeit Temperatur Niederschläge Wind Luftdruck Luftfeuchtigkeit
00:00 +4°C° 0 mm 2 m/S 762 mmHg 97%
01:00 +4°C° 0 mm 2 m/S 762 mmHg 98%
02:00 +4°C° 0 mm 2 m/S 762 mmHg 98%
03:00 +4°C° 0 mm 2 m/S 762 mmHg 98%
04:00 +5°C° 0 mm 2 m/S 762 mmHg 98%
05:00 +5°C° 0 mm 2 m/S 762 mmHg 97%
06:00 +5°C° 0 mm 2 m/S 762 mmHg 97%
07:00 +5°C° 0 mm 3 m/S 762 mmHg 96%
08:00 +5°C° 0.3 mm 3 m/S 762 mmHg 96%
09:00 +7°C° 0.3 mm 3 m/S 762 mmHg 95%
10:00 +8°C° 0.3 mm 3 m/S 762 mmHg 94%
11:00 +8°C° 0.2 mm 3 m/S 762 mmHg 91%
12:00 +9°C° 0.2 mm 3 m/S 762 mmHg 88%
13:00 +10°C° 0.2 mm 3 m/S 762 mmHg 85%
14:00 +10°C° 0.3 mm 3 m/S 762 mmHg 83%
15:00 +11°C° 0.3 mm 3 m/S 761 mmHg 80%
16:00 +11°C° 0.3 mm 3 m/S 761 mmHg 78%
17:00 +10°C° 0.3 mm 3 m/S 762 mmHg 82%
18:00 +9°C° 0.3 mm 3 m/S 762 mmHg 86%
19:00 +8°C° 0.3 mm 2 m/S 762 mmHg 91%
20:00 +7°C° 0 mm 2 m/S 762 mmHg 92%
21:00 +7°C° 0 mm 2 m/S 762 mmHg 93%
22:00 +6°C° 0 mm 2 m/S 762 mmHg 94%
23:00 +6°C° 0 mm 2 m/S 762 mmHg 94%

18 April, Sonntag

Zeit Temperatur Niederschläge Wind Luftdruck Luftfeuchtigkeit
00:00 +6°C° 0 mm 2 m/S 762 mmHg 95%
01:00 +5°C° 0 mm 2 m/S 762 mmHg 95%
02:00 +6°C° 0.1 mm 2 m/S 762 mmHg 95%
03:00 +6°C° 0.1 mm 2 m/S 762 mmHg 94%
04:00 +6°C° 0.1 mm 2 m/S 762 mmHg 94%
05:00 +7°C° 0.1 mm 2 m/S 762 mmHg 93%
06:00 +7°C° 0.1 mm 2 m/S 762 mmHg 93%
07:00 +7°C° 0.1 mm 2 m/S 762 mmHg 92%
08:00 +8°C° 0 mm 2 m/S 762 mmHg 86%
09:00 +9°C° 0 mm 2 m/S 762 mmHg 81%
10:00 +10°C° 0 mm 3 m/S 762 mmHg 75%
11:00 +10°C° 0.1 mm 3 m/S 762 mmHg 72%
12:00 +10°C° 0.1 mm 3 m/S 762 mmHg 70%
13:00 +11°C° 0.1 mm 3 m/S 762 mmHg 67%
14:00 +11°C° 0.1 mm 3 m/S 762 mmHg 65%
15:00 +12°C° 0.1 mm 3 m/S 761 mmHg 62%
16:00 +12°C° 0.1 mm 3 m/S 761 mmHg 60%
17:00 +11°C° 0 mm 3 m/S 761 mmHg 66%
18:00 +10°C° 0 mm 2 m/S 762 mmHg 73%
19:00 +8°C° 0 mm 2 m/S 762 mmHg 79%
20:00 +8°C° 0 mm 2 m/S 762 mmHg 80%
21:00 +8°C° 0 mm 2 m/S 762 mmHg 81%
22:00 +7°C° 0 mm 2 m/S 762 mmHg 82%
23:00 +7°C° 0 mm 2 m/S 762 mmHg 83%

19 April, Montag

Zeit Temperatur Niederschläge Wind Luftdruck Luftfeuchtigkeit
00:00 +7°C° 0 mm 2 m/S 762 mmHg 84%
01:00 +7°C° 0 mm 2 m/S 762 mmHg 85%
02:00 +7°C° 0 mm 2 m/S 762 mmHg 85%
03:00 +7°C° 0 mm 2 m/S 761 mmHg 85%
04:00 +6°C° 0 mm 2 m/S 761 mmHg 86%
05:00 +7°C° 0 mm 2 m/S 761 mmHg 83%
06:00 +8°C° 0 mm 2 m/S 761 mmHg 80%
07:00 +8°C° 0 mm 3 m/S 761 mmHg 78%
08:00 +10°C° 0 mm 3 m/S 761 mmHg 72%
09:00 +11°C° 0 mm 4 m/S 761 mmHg 66%
10:00 +12°C° 0 mm 4 m/S 760 mmHg 60%
11:00 +12°C° 0.1 mm 4 m/S 760 mmHg 62%
12:00 +12°C° 0.1 mm 4 m/S 760 mmHg 64%
13:00 +12°C° 0.1 mm 4 m/S 759 mmHg 65%
14:00 +12°C° 0.3 mm 4 m/S 759 mmHg 70%
15:00 +11°C° 0.3 mm 4 m/S 759 mmHg 75%
16:00 +11°C° 0.3 mm 4 m/S 758 mmHg 80%
17:00 +10°C° 0.1 mm 3 m/S 758 mmHg 82%
18:00 +10°C° 0.1 mm 3 m/S 758 mmHg 85%
19:00 +10°C° 0.1 mm 3 m/S 758 mmHg 87%
20:00 +9°C° 0.3 mm 3 m/S 757 mmHg 89%
21:00 +9°C° 0.3 mm 3 m/S 757 mmHg 90%
22:00 +9°C° 0.3 mm 3 m/S 757 mmHg 91%
23:00 +9°C° 0.1 mm 3 m/S 756 mmHg 90%

20 April, Dienstag

Zeit Temperatur Niederschläge Wind Luftdruck Luftfeuchtigkeit
00:00 +9°C° 0.1 mm 3 m/S 756 mmHg 90%
01:00 +9°C° 0.1 mm 3 m/S 756 mmHg 90%
02:00 +8°C° 0 mm 3 m/S 755 mmHg 91%
03:00 +8°C° 0 mm 3 m/S 755 mmHg 92%
04:00 +8°C° 0 mm 3 m/S 755 mmHg 93%
05:00 +8°C° 0 mm 3 m/S 755 mmHg 93%
06:00 +7°C° 0 mm 4 m/S 754 mmHg 92%
07:00 +8°C° 0 mm 4 m/S 754 mmHg 91%
08:00 +10°C° 0.1 mm 4 m/S 754 mmHg 86%
09:00 +10°C° 0.1 mm 4 m/S 753 mmHg 82%
10:00 +10°C° 0.1 mm 5 m/S 753 mmHg 77%
11:00 +10°C° 0.1 mm 5 m/S 753 mmHg 77%
12:00 +10°C° 0.1 mm 5 m/S 753 mmHg 76%
13:00 +11°C° 0.1 mm 4 m/S 753 mmHg 76%
14:00 +11°C° 0.1 mm 4 m/S 752 mmHg 78%
15:00 +10°C° 0.1 mm 4 m/S 752 mmHg 81%
16:00 +10°C° 0.1 mm 4 m/S 752 mmHg 84%
17:00 +10°C° 0 mm 4 m/S 752 mmHg 84%
18:00 +8°C° 0 mm 4 m/S 752 mmHg 83%
19:00 +9°C° 0 mm 3 m/S 752 mmHg 83%
20:00 +9°C° 0 mm 3 m/S 752 mmHg 84%
21:00 +9°C° 0 mm 3 m/S 751 mmHg 85%
22:00 +8°C° 0 mm 3 m/S 751 mmHg 86%
23:00 +8°C° 0 mm 3 m/S 751 mmHg 86%
Mehr zeigen

Wir brauchen deine Erlaubnis

Meteoprog und unser Service Anbieter werden persönliche Daten aufbewahren, so wie Cookies, Geräte Bezeichnung oder ähnliche Technologien von deinem Gerät und Prozess, so wie Persönliche Daten Inhalte und Werbungen, genauso wie social Media und den Verkehr zu analysieren.

  • Aufbewahrung und/oder Zugang zu deiner Geräte Informationen.

    Cookies, Geräte Bezeichnung oder andere Informationen, können aufbewahrt oder Zugang zu deinem Gerät erhalten, für den Grund, der oben angegeben wird.

  • Personalisierte Werbung und Inhalte, Messungen, Einblick in das Publikum und Produkt Entwicklung.

    Werbungen und Inhalte können personalisiert werden, basierend auf ein Profil. Mehr Daten können besser personalisierte Werbungen und Inhalte hinzufügen. Werbung und Inhalte können gezeigt und gemessen werden. Einblicke über das Publikum, welche die Werbung gesehen haben und den Inhalt, können abgeleitet werden. So wie Daten können genutzt werden, um es zu verbessern oder die Benutzer Erfahrung zu verbessern das System und die Software.

Wenn du “Ich stimme zu” klickst, erlaubst du uns, die Cookies zu benutzen die Geräte Bezeichnung, den Web oder ähnliche Technologien zu benutzen. Deine Settings, können in deinem Gerät bei deinem Browser geändert werden.

Für den bestimmten Zweck, berechtigten Interessen beruhen darauf, mehr als auf den Inhalt. Du kannst mehr darüber in unseren Privaten und Cookie Politik lesen.